{"data":{"norad_id":69903,"epoch":"2026-09-20T03:59:45.542112Z","epoch_age_seconds":46602,"freshness":"FRESH","line1":"1 69903U 26156AL  26263.16649933  .00001252  00000+0  13162-3 0  9992","line2":"2 69903  97.7490 162.3230 0001741 244.9214 115.1824 14.91187802 11152","mean_motion":14.91187802,"eccentricity":0.0001741,"inclination_deg":97.749,"raan_deg":162.323,"arg_perigee_deg":244.9214,"mean_anomaly_deg":115.1824,"bstar":0.00013162,"rev_number":1115,"period_min":96.567313524739,"perigee_km":593.01676832398,"apogee_km":595.44454674233,"semimajor_km":6972.3676575332,"source":"CELESTRAK","updated_at":"2026-09-20T09:00:25.172235Z"}}